Location: Baia Mare
(47.6567°N, 23.5850°E)
Time: 20:40:52
(UTC+03:00)

ISS - Pass Details

Date: 27 March 2018
Orbit: 402 x 408 km, 51.6° (Epoch: 21 July)

Event Time Altitude Azimuth Distance (km) Brightness Sun altitude
Rises 20:42:55 0° 232° (SW) 2,343 0.6 -9.9°
Reaches altitude 10° 20:45:01 10° 228° (SW) 1,485 -0.5 -10.2°
Maximum altitude 20:48:17 55° 150° (SSE) 506 -3.6 -10.8°
Enters shadow 20:51:03 14° 73° (ENE) 1,288 -1.8 -11.2°
